マクノート彗星

254P/McNaught (2020)

English version
Home page
Updated on January 13, 2021

---------------------------------------------------------------------

・ プロフィール

・ 写真集

・ 軌道要素

Epoch 2020 Sept. 28.0 TT = JDT 2459120.5
T 2020 Sept. 29.67956 TT                                Rudenko
q   3.1369887            (2000.0)            P               Q
n   0.09945274     Peri.  219.48353     +0.90293749     +0.10255787
a   4.6137943      Node   129.17431     -0.10223390     +0.99448985
e   0.3200848      Incl.   32.57242     -0.41743517     -0.02172127
P   9.91
From 166 observations 1980 Oct. 5-2020 Sept. 23, mean residual 0".7.

・ 光度変化

        m1 = 10.5 + 5 logΔ + 10.0 log r(t - 200)

---------------------------------------------------------------------

軌道要素はM.P.E.C. 2020-S188に掲載されたものです。
光度グラフはComet for Windowsで作成したものです。

---------------------------------------------------------------------

Copyright(C) Seiichi Yoshida (comet@aerith.net). All rights reserved.